Location: Kaiser
(34.0939°N, 117.4889°W)
Time: 23:26:59
(UTC+00:00)

ERS-2 - Visible Passes

Search period start: 01 March 2021 00:00
Search period end: 11 March 2021 00:00
Orbit: 492 x 497 km, 98.6° (Epoch: 01 March)

Date Brightness Start Highest point End Pass type
(mag) Time Alt. Az. Time Alt. Az. Time Alt. Az.
01 Mar 5.1 03:25:28 10° NNW 03:27:59 18° WNW 03:30:30 10° WSW visible
02 Mar 3.9 03:03:32 10° N 03:06:51 33° WNW 03:10:09 10° SW visible
02 Mar 2.7 13:36:39 10° SSE 13:40:13 60° ENE 13:43:48 10° N visible
03 Mar 2.4 02:42:01 10° N 02:45:40 71° WNW 02:49:16 10° SSW visible
03 Mar 4.3 13:15:52 10° SE 13:19:02 29° ENE 13:22:13 10° N visible
04 Mar 2.2 02:20:49 10° NNE 02:24:24 54° ESE 02:27:58 10° S visible
04 Mar 5.3 12:55:41 10° ESE 12:57:55 16° ENE 13:00:09 10° NNE visible
05 Mar 5.3 03:34:11 10° NNW 03:36:20 15° WNW 03:38:29 10° WSW visible
06 Mar 4.3 03:12:04 10° NNW 03:15:13 28° WNW 03:18:22 10° SW visible
06 Mar 2.4 13:45:00 10° SSE 13:48:36 75° ENE 13:52:13 10° N visible
07 Mar 2.8 02:50:27 10° N 02:54:02 57° WNW 02:57:37 10° SSW visible
07 Mar 3.9 13:24:04 10° SE 13:27:23 35° ENE 13:30:43 10° N visible
08 Mar 2.0 02:29:09 10° NNE 02:32:47 67° ESE 02:36:25 10° S visible
08 Mar 5.2 13:03:41 10° ESE 13:06:14 19° ENE 13:08:49 10° NNE visible
09 Mar 5.5 03:42:59 10° NW 03:44:40 13° WNW 03:46:20 10° W visible
10 Mar 4.6 03:20:35 10° NNW 03:23:33 24° WNW 03:26:31 10° SW visible
